sat.trackr.live / text

‹ back to catalog

STARLINK-11231 [DTC]

NORAD 61057 · 2024-164H

PAYLOAD ACTIVE UNKNOWN

§ Identity

Operator
Country
US
Launch date
2024-09-13
Launch site
AFWTR
Launch vehicle
Mass (kg)
RCS (m²)

Purposes: comms

External: N2YO · Heavens-Above · Gunter

§ Orbital elements

Epoch: 2026-09-21T17:24:09.488448Z

Period
91.74 min
Inclination
53.1580°
Eccentricity
0.0000762
Mean motion
15.69708015 rev/d
Perigee alt
359.2 km
Apogee alt
360.2 km
Semi-major
6,737.9 km
B*
9.3865e-6
RAAN
65.2454°
Arg perigee
94.8526°
Mean anomaly
265.2579°
Rev number
11,620

§ Raw data

STARLINK-11231 [DTC]1 61057U 24164H   26264.72510982  .00000549  00000+0  93865-5 0  99932 61057  53.1580  65.2454 0000762  94.8526 265.2579 15.69708015116206

JSON: /api/v1/satellites/61057 · /tle

For live sub-satellite position, see the globe view (requires WebGL).

§ Visibility from observer

Set your observer location to see the next 7 days of passes ≥ 10°. The values pass through the URL so the page stays shareable.

No JS? Fill the form by hand. The geolocation button needs JavaScript.